TimeEST,TemperatureF,Dew PointF,Humidity,Sea Level PressureIn,VisibilityMPH,Wind Direction,Wind SpeedMPH,Gust SpeedMPH,PrecipitationIn,Events,Conditions,WindDirDegrees,DateUTC
12:53 AM,18.0,10.9,74,29.70,7.0,NW,4.6,-,0.00,Snow,Light Snow,320,2013-02-04 05:53:00
1:53 AM,17.1,10.0,74,29.68,9.0,NW,6.9,-,0.00,,Overcast,320,2013-02-04 06:53:00
2:18 AM,17.6,10.4,73,29.63,8.0,NW,4.6,-,0.00,Snow,Light Snow,310,2013-02-04 07:18:00
2:51 AM,14.0,8.6,79,29.62,9.0,West,4.6,-,0.00,,Mostly Cloudy,270,2013-02-04 07:51:00
2:53 AM,14.0,8.1,77,29.66,9.0,West,5.8,-,0.00,,Mostly Cloudy,260,2013-02-04 07:53:00
3:01 AM,12.2,8.6,85,29.62,10.0,West,4.6,-,N/A,,Mostly Cloudy,280,2013-02-04 08:01:00
3:53 AM,12.0,7.0,80,29.64,10.0,WNW,4.6,-,N/A,,Scattered Clouds,290,2013-02-04 08:53:00
5:53 AM,10.9,6.1,81,29.59,10.0,WNW,5.8,-,N/A,,Clear,290,2013-02-04 10:53:00
6:53 AM,12.0,5.0,73,29.58,10.0,WNW,8.1,-,N/A,,Clear,290,2013-02-04 11:53:00
7:53 AM,12.0,5.0,73,29.59,10.0,WNW,6.9,-,N/A,,Partly Cloudy,290,2013-02-04 12:53:00
8:53 AM,15.1,5.0,64,29.58,10.0,WNW,10.4,18.4,N/A,,Mostly Cloudy,300,2013-02-04 13:53:00
9:53 AM,19.0,6.1,57,29.56,10.0,NW,17.3,26.5,N/A,,Clear,310,2013-02-04 14:53:00
10:53 AM,19.9,6.1,55,29.56,10.0,WNW,17.3,28.8,N/A,,Mostly Cloudy,300,2013-02-04 15:53:00
11:53 AM,19.9,6.1,55,29.55,10.0,WNW,18.4,27.6,N/A,,Overcast,290,2013-02-04 16:53:00
12:53 PM,21.0,7.0,55,29.54,10.0,West,9.2,24.2,0.00,,Overcast,280,2013-02-04 17:53:00
1:53 PM,21.9,3.9,46,29.54,10.0,NW,20.7,26.5,N/A,,Scattered Clouds,310,2013-02-04 18:53:00
2:53 PM,21.9,1.9,42,29.55,10.0,West,18.4,31.1,N/A,,Mostly Cloudy,280,2013-02-04 19:53:00
3:53 PM,21.0,1.0,42,29.57,10.0,WNW,15.0,27.6,N/A,,Overcast,290,2013-02-04 20:53:00
4:53 PM,19.9,3.0,48,29.59,10.0,West,10.4,24.2,N/A,,Overcast,270,2013-02-04 21:53:00
5:42 PM,17.6,8.6,68,29.58,2.5,West,13.8,31.1,0.00,Snow,Light Snow,270,2013-02-04 22:42:00
5:50 PM,17.6,8.6,68,29.58,2.0,West,10.4,20.7,0.00,Snow,Light Snow,270,2013-02-04 22:50:00
5:53 PM,17.1,9.0,71,29.62,4.0,West,10.4,19.6,0.00,Snow,Light Snow,270,2013-02-04 22:53:00
6:53 PM,17.1,3.0,54,29.64,10.0,West,15.0,25.3,0.00,,Scattered Clouds,270,2013-02-04 23:53:00
7:53 PM,15.1,3.0,59,29.66,10.0,West,13.8,25.3,N/A,,Scattered Clouds,260,2013-02-05 00:53:00
8:53 PM,12.9,-0.0,56,29.68,10.0,West,11.5,27.6,N/A,,Partly Cloudy,260,2013-02-05 01:53:00
9:53 PM,12.0,-2.0,53,29.69,10.0,West,9.2,28.8,N/A,,Partly Cloudy,260,2013-02-05 02:53:00
10:53 PM,10.0,-2.0,58,29.72,10.0,West,12.7,26.5,N/A,,Clear,280,2013-02-05 03:53:00
11:53 PM,8.1,-6.0,53,29.75,10.0,WNW,10.4,23.0,N/A,,Partly Cloudy,290,2013-02-05 04:53:00